www.pogodaiklimat.ru
ПОГОДА в Коннелсвилле
Время
и дата
03:35 19.07
03:55 19.07
04:15 19.07
04:35 19.07
04:55 19.07
05:15 19.07
05:35 19.07
05:55 19.07
06:15 19.07
06:35 19.07
06:55 19.07
07:15 19.07
07:35 19.07
07:55 19.07
08:15 19.07
08:35 19.07
08:55 19.07
09:15 19.07
09:35 19.07
09:55 19.07
10:15 19.07
10:35 19.07
10:55 19.07
11:15 19.07
11:35 19.07
11:55 19.07
12:15 19.07
12:35 19.07
12:55 19.07
13:15 19.07
13:35 19.07
13:55 19.07
14:15 19.07
14:35 19.07
14:55 19.07
15:15 19.07
15:35 19.07
15:55 19.07
16:15 19.07
16:35 19.07
16:55 19.07
17:15 19.07
17:35 19.07
17:55 19.07
18:15 19.07
18:35 19.07
18:55 19.07
19:15 19.07
Ветер
(напр.,м/с)
Видим. Явления Облачность Т
(С)
Тd
(С)
f
(%)
Тe
(С)
Тes
(С)
Комфортность P
(гПа)
Po
(гПа)
Тmin
(С)
Tmax
(С)
R
(мм)
R24
(мм)
S
(см)
СВ 2 16 км ясно +13.3 +12.2 93 +13 +13 975.0
В 2 16 км ясно +13.6 +12.4 92 +13 +13 975.0
В 2 16 км ясно +13.5 +12.2 92 +13 +13 975.0
СВ 3 16 км ясно +13.4 +12.1 92 +12 +12 975.0
В 2 16 км ясно +13.2 +12.0 92 +12 +12 975.3
В 2 16 км ясно +13.1 +12.0 93 +12 +12 975.3
СВ 2 16 км ясно +13.1 +12.0 93 +12 +12 975.6
СВ 2 16 км ясно +13.8 +12.2 90 +13 +13 976.0
СВ 2 16 км ясно +14.7 +12.6 87 +14 +15 976.0
СВ 3 16 км ясно +15.4 +12.8 84 +15 +15 976.0
СВ 3 16 км ясно +15.9 +12.8 82 +15 +16 976.3 +13.0 +16.1
С 3 16 км ясно +16.7 +13.6 82 +16 +19 976.6
СВ 3 16 км ясно +17.5 +13.9 79 +18 +20 976.6
СВ 3 16 км ясно +18.1 +13.8 76 +18 +21 976.9
С 3 16 км ясно +19.1 +13.8 71 +21 +26 комфорт 976.9
С 3 16 км ясно +19.6 +13.9 70 +22 +27 комфорт 976.9
СВ 2 16 км ясно +20.5 +14.1 67 +24 +30 комфорт 976.9
штиль 0 16 км ясно +21.1 +14.1 64 +24 +38 комфорт 976.9
В 2 16 км ясно +22.3 +14.2 60 +26 +36 жарко 976.6
СЗ 2 16 км ясно +23.0 +13.7 56 +26 +37 жарко 976.6
штиль 0 16 км ясно +23.6 +13.1 52 +26 +46 жарко 976.6
СВ 3 16 км ясно +24.1 +13.0 50 +26 +39 жарко 976.3
СВ 3 16 км ясно +24.5 +12.8 48 +26 +39 жарко 976.3
СВ 2 16 км ясно +24.6 +12.7 47 +26 +45 жарко 976.3
З 3 16 км ясно +25.0 +13.2 48 +27 +42 жарко 976.3
С 2 16 км ясно +25.3 +12.3 44 +27 +45 жарко 976.0
СЗ 2 16 км ясно +25.9 +12.3 43 +27 +47 жарко 976.0
З 3 16 км ясно +26.2 +12.8 43 +28 +44 жарко 975.6
СЗ 2 16 км ясно +26.2 +12.7 43 +28 +48 жарко 975.6 +16.1 +26.6
Ю 3 16 км 5/5 +27.3 +13.5 43 +29 +37 жарко 975.3
СЗ 3 16 км 5/5 +26.7 +12.9 42 +28 +36 жарко 975.3
З 2 16 км 5/5 +27.1 +12.6 41 +29 +38 жарко 975.3
С 3 16 км 5/5 +27.4 +12.9 41 +29 +36 жарко 975.0
З 2 16 км 5/5 +26.5 +12.6 42 +28 +37 жарко 974.7
СЗ 3 16 км 5/5 +27.6 +13.4 42 +29 +37 жарко 974.7
З 2 16 км ясно +27.8 +13.3 41 +30 +43 жарко 974.3
С 3 16 км ясно +27.7 +13.0 40 +29 +40 жарко 974.3
СЗ 2 16 км ясно +27.8 +13.1 40 +29 +43 жарко 974.0
СЗ 2 16 км ясно +28.0 +12.8 39 +29 +38 жарко 973.7
СЗ 3 16 км ясно +27.9 +13.1 40 +30 +37 жарко 973.7
З 3 16 км ясно +27.9 +12.8 39 +29 +37 жарко 973.4
С 2 16 км 5/?
[Ac]
+27.6 +12.7 40 +29 +32 жарко 973.4
С 3 16 км 8/?
[Ac]
+27.1 +12.8 41 +29 +30 жарко 973.4
С 3 16 км 8/?
[Ac]
+27.2 +12.6 40 +29 +30 жарко 973.4
С 3 16 км 8/?
[Ac]
+26.6 +12.6 42 +28 +29 жарко 973.7
С 2 16 км 10/?
[Ac]
+26.2 +13.1 44 +28 +29 жарко 973.7
С 2 16 км 10/?
[Ac]
+25.6 +13.5 47 +28 +28 жарко 974.0 +25.5 +28.5
СВ 2 16 км 8/?
[Ac]
+25.6 +12.9 45 +27 +27 жарко 974.0
Местоположение метеостанции Joseph A. Hardy Connellsville Airport: широта 39.9581 долгота -79.6575 высота над уровнем моря 386 м.
В архиве по умолчанию представлена погода в Коннелсвилле за последние 1-2 суток. Обновление информации о фактической погоде в базе происходит ежечасно! Архивные данные за месяц целиком и за предыдущие месяцы Вы можете получить, выбрав интересующий диапазон дат из раскрывающегося списка и нажав кнопку "Ввод!".
Внимание! Архив погоды МЕТАР в базе сайта по станциям, не включенным в климатический монитор, хранится не более 60 дней. Нет смысла пытаться выбрать более раннюю дату.
*Определитесь, кто Вы:
Внимание! Время в таблицах - местное (без учета летнего времени). Для получения всемирного времени необходимо вычесть поправку, которая равна -5 ч.
Смотрите также архив погоды в соседних городах и на ближайших метеорологических станциях:
Партнеры нашего сайта:      
Пояснения к столбцам:
  • Ветер - указаны скорость ветра в м/с - средняя за 10 мин, порывы в срок и между сроками (в фигурных скобках) и направление, откуда дует ветер: С - северный,
  • СВ - северо-восточный, В - восточный, ЮВ - юго-восточный, Ю - южный, ЮЗ - юго-западный, З - западный, СЗ - северо-западный.
  • Видимость - горизонтальная дальность видимости в метрах или километрах. При видимости от 1 до 10 км при отсутствии осадков обычно наблюдается дымка, при ухудшении видимости до 1 км и менее - туман. В сухую погоду видимость может ухудшаться дымом, пылью или мглою.
  • Явления - указаны атмосферные явления, наблюдавшиеся в срок или в последний час перед сроком; фигурными скобками обозначены явления, наблюдавшиеся между сроками (за 1-3 часа до срока); квадратными скобками обозначены град или гололедные отложения с указанием их диаметра в мм.
  • Облачность - указаны через наклонную черту общая и нижняя облачность в баллах и высота нижней границы облаков в метрах; квадратными скобками обозначены формы облаков: Ci - перистые, Cs - перисто-слоистые, Cc - перисто-кучевые, Ac - высококучевые, As - высокослоистые, Sc - слоисто-кучевые, Ns - слоисто-дождевые, Cu - кучевые, Cb - кучево-дождевые. Подробнее классификацию облаков см. в Атласе облаков (PDF).
  • T - Температура воздуха - температура, измеренная на высоте 2 м над землей.
  • Td - Температура точки росы - температура, при понижении до которой содержащийся в воздухе водяной пар достигнет насыщения.
  • f - Относительная влажность воздуха - влажноcть воздуха, измеренная на высоте 2 м над землей.
  • Te - Эффективная температура - температура, которую ощущает одетый по сезону человек в тени. Характеристика душности погоды. При расчете учитывается влияние влажности воздуха и скорости ветра на теплоощущения человека.
  • Tes - Эффективная температура на солнце - температура, которую ощущает человек, с поправкой на солнечный нагрев. Характеристика знойности погоды. Зависит от высоты солнца над горизонтом, облачности и скорости ветра. Ночью, в пасмурную погоду, а также при ветре 12 м/с и более поправка равна нулю.
  • P - Атмосферное давление - приведенное к уровню моря атмосферное давление.
  • Po - Атмосферное давление - измеренное на уровне метеостанции атмосферное давление.
  • Tmin - Минимальная температура - минимум температуры воздуха на высоте 2 м над землей.
  • Tmax - Максимальная температура - максимум температуры воздуха на высоте 2 м над землей.
  • R - Количество осадков - Количество выпавших осадков за период времени, мм. При наведении курсора мыши на число - период времени, за который выпало указанное количество осадков.
  • R24 - Количество осадков - Количество выпавших осадков за 24 часа, мм.
  • S - Снежный покров - Высота снежного покрова, см. При наведении курсора мыши на число - состояние снежного покрова и степень покрытия местности в баллах.